GFSNW_prec_prec_159.txt.gz
QPF
0.03 0.01 0.01 0.01 0.02 0.04 0.06 0.02 0.01 0.00 0.01 0.02 0.05 0.02 0.00 0.00 0.00 0.00 0.00 0.00 0.00 0.00 0.00 0.00 0.00 0.00 0.00 0.00 0.00 0.00 0.01 0.02 0.00 0.00 0.00 0.00 0.00 0.00 0.00 0.00 0.00 0.00 0.00 0.00
0.06 0.01 0.01 0.01 0.02 0.05 0.03 0.06 0.01 0.00 0.03 0.03 0.01 0.00 0.00 0.00 0.00 0.00 0.00 0.00 0.00 0.00 0.00 0.00 0.00 0.00 0.00 0.00 0.00 0.00 0.01 0.02 0.02 0.00 0.00 0.00 0.00 0.00 0.00 0.01 0.02 0.02 0.00 0.00
0.08 0.04 0.02 0.02 0.02 0.05 0.01 0.06 0.07 0.04 0.07 0.01 0.00 0.00 0.00 0.00 0.00 0.00 0.00 0.00 0.00 0.00 0.00 0.00 0.00 0.00 0.00 0.00 0.00 0.00 0.01 0.00 0.00 0.00 0.00 0.00 0.00 0.00 0.00 0.00 0.02 0.01 0.00 0.00
0.03 0.02 0.07 0.08 0.04 0.05 0.09 0.14 0.09 0.02 0.05 0.04 0.01 0.00 0.00 0.00 0.00 0.00 0.00 0.00 0.00 0.00 0.00 0.00 0.00 0.00 0.00 0.00 0.00 0.00 0.00 0.00 0.00 0.00 0.00 0.00 0.00 0.00 0.00 0.00 0.00 0.00 0.00 0.00
0.04 0.02 0.01 0.10 0.20 0.08 0.14 0.10 0.05 0.01 0.00 0.00 0.02 0.06 0.03 0.00 0.00 0.00 0.00 0.00 0.00 0.00 0.00 0.00 0.00 0.00 0.00 0.00 0.00 0.01 0.02 0.01 0.00 0.00 0.00 0.00 0.00 0.00 0.00 0.00 0.00 0.00 0.00 0.00
0.04 0.03 0.02 0.02 0.14 0.38 0.39 0.05 0.00 0.01 0.01 0.00 0.00 0.01 0.03 0.01 0.01 0.01 0.00 0.00 0.01 0.00 0.00 0.00 0.00 0.00 0.00 0.00 0.00 0.00 0.01 0.01 0.01 0.01 0.00 0.02 0.03 0.00 0.00 0.00 0.00 0.00 0.00 0.00
0.01 0.01 0.03 0.02 0.03 0.23 0.40 0.05 0.00 0.00 0.01 0.01 0.00 0.00 0.00 0.00 0.00 0.02 0.00 0.00 0.01 0.00 0.00 0.00 0.00 0.00 0.00 0.00 0.00 0.00 0.00 0.00 0.02 0.00 0.00 0.02 0.01 0.00 0.00 0.00 0.00 0.00 0.00 0.00
0.01 0.01 0.01 0.02 0.03 0.06 0.16 0.11 0.04 0.02 0.01 0.00 0.00 0.00 0.00 0.00 0.00 0.00 0.00 0.00 0.02 0.02 0.03 0.03 0.02 0.01 0.00 0.00 0.00 0.00 0.00 0.00 0.01 0.01 0.01 0.00 0.00 0.00 0.00 0.00 0.00 0.00 0.00 0.00
0.01 0.01 0.00 0.00 0.01 0.03 0.06 0.03 0.01 0.02 0.05 0.01 0.00 0.00 0.00 0.00 0.00 0.00 0.00 0.00 0.00 0.02 0.08 0.09 0.06 0.02 0.00 0.00 0.00 0.00 0.00 0.00 0.02 0.00 0.01 0.01 0.00 0.00 0.00 0.00 0.00 0.00 0.00 0.00
0.02 0.01 0.01 0.00 0.00 0.00 0.04 0.03 0.01 0.02 0.08 0.01 0.00 0.00 0.00 0.00 0.00 0.00 0.00 0.01 0.02 0.02 0.03 0.07 0.05 0.01 0.00 0.00 0.00 0.00 0.01 0.01 0.01 0.01 0.01 0.00 0.00 0.00 0.00 0.00 0.00 0.00 0.00 0.00
0.01 0.01 0.00 0.01 0.01 0.01 0.03 0.02 0.02 0.03 0.06 0.01 0.00 0.00 0.00 0.00 0.00 0.00 0.00 0.01 0.01 0.02 0.04 0.06 0.08 0.04 0.00 0.00 0.00 0.01 0.02 0.04 0.02 0.01 0.03 0.00 0.00 0.00 0.00 0.00 0.00 0.00 0.00 0.00
0.01 0.01 0.01 0.01 0.02 0.02 0.05 0.02 0.01 0.01 0.10 0.08 0.00 0.00 0.00 0.00 0.00 0.00 0.00 0.00 0.00 0.00 0.05 0.08 0.03 0.02 0.04 0.01 0.01 0.02 0.02 0.02 0.02 0.03 0.01 0.00 0.00 0.01 0.00 0.00 0.00 0.00 0.00 0.00
0.01 0.01 0.02 0.02 0.02 0.04 0.06 0.03 0.01 0.04 0.10 0.11 0.01 0.00 0.00 0.00 0.00 0.00 0.00 0.00 0.00 0.01 0.03 0.12 0.16 0.08 0.00 0.00 0.01 0.01 0.01 0.01 0.00 0.01 0.00 0.00 0.01 0.00 0.00 0.00 0.00 0.00 0.00 0.00
0.03 0.04 0.06 0.07 0.07 0.12 0.16 0.12 0.05 0.03 0.08 0.06 0.01 0.00 0.00 0.00 0.00 0.00 0.00 0.00 0.02 0.04 0.04 0.09 0.17 0.10 0.01 0.00 0.00 0.00 0.00 0.00 0.00 0.00 0.00 0.00 0.01 0.00 0.00 0.00 0.00 0.00 0.00 0.00
0.05 0.05 0.06 0.08 0.12 0.16 0.24 0.14 0.05 0.01 0.03 0.04 0.01 0.00 0.00 0.00 0.00 0.00 0.00 0.00 0.00 0.00 0.03 0.12 0.12 0.07 0.02 0.01 0.00 0.00 0.00 0.00 0.00 0.00 0.00 0.00 0.00 0.00 0.00 0.00 0.00 0.00 0.00 0.00
0.07 0.07 0.06 0.05 0.08 0.18 0.53 0.58 0.27 0.03 0.00 0.04 0.12 0.03 0.01 0.00 0.00 0.00 0.00 0.00 0.00 0.00 0.01 0.03 0.10 0.10 0.06 0.02 0.00 0.00 0.00 0.00 0.00 0.00 0.00 0.00 0.00 0.00 0.00 0.00 0.00 0.00 0.00 0.00
0.07 0.07 0.11 0.11 0.12 0.23 0.25 0.13 0.10 0.04 0.03 0.12 0.09 0.03 0.02 0.00 0.00 0.00 0.00 0.00 0.00 0.00 0.01 0.01 0.01 0.03 0.10 0.08 0.00 0.00 0.00 0.00 0.00 0.00 0.00 0.00 0.00 0.01 0.02 0.01 0.00 0.00 0.00 0.00
0.13 0.08 0.10 0.13 0.18 0.21 0.09 0.00 0.00 0.00 0.11 0.14 0.10 0.06 0.07 0.02 0.01 0.01 0.02 0.03 0.03 0.04 0.03 0.01 0.00 0.00 0.01 0.00 0.00 0.00 0.00 0.00 0.00 0.00 0.00 0.00 0.02 0.03 0.01 0.00 0.00 0.00 0.00 0.00
0.16 0.11 0.18 0.33 0.37 0.26 0.09 0.01 0.01 0.01 0.08 0.12 0.12 0.05 0.06 0.02 0.01 0.00 0.04 0.12 0.05 0.03 0.04 0.01 0.00 0.00 0.00 0.00 0.00 0.00 0.00 0.00 0.00 0.00 0.00 0.01 0.02 0.01 0.00 0.00 0.00 0.00 0.00 0.00
0.16 0.22 0.23 0.31 0.17 0.04 0.12 0.23 0.23 0.22 0.08 0.05 0.14 0.02 0.01 0.01 0.01 0.01 0.01 0.04 0.01 0.00 0.00 0.01 0.03 0.01 0.00 0.00 0.00 0.00 0.00 0.00 0.00 0.01 0.06 0.07 0.03 0.00 0.00 0.00 0.00 0.00 0.00 0.00
0.06 0.08 0.15 0.17 0.05 0.06 0.09 0.17 0.12 0.11 0.11 0.01 0.01 0.00 0.00 0.00 0.00 0.00 0.00 0.00 0.00 0.00 0.00 0.00 0.00 0.00 0.00 0.00 0.00 0.00 0.00 0.00 0.01 0.01 0.02 0.01 0.00 0.00 0.00 0.00 0.00 0.00 0.00 0.00
0.00 0.05 0.14 0.15 0.11 0.08 0.06 0.06 0.02 0.00 0.01 0.01 0.01 0.00 0.00 0.01 0.00 0.00 0.00 0.01 0.01 0.00 0.00 0.01 0.00 0.00 0.00 0.00 0.00 0.00 0.00 0.01 0.00 0.02 0.02 0.00 0.00 0.00 0.00 0.00 0.00 0.00 0.00 0.00
0.00 0.00 0.01 0.01 0.01 0.00 0.00 0.02 0.00 0.00 0.00 0.01 0.03 0.02 0.01 0.04 0.03 0.05 0.04 0.02 0.01 0.00 0.01 0.00 0.00 0.00 0.00 0.01 0.01 0.02 0.03 0.03 0.03 0.03 0.00 0.00 0.00 0.00 0.00 0.00 0.00 0.00 0.00 0.00
0.00 0.00 0.00 0.00 0.00 0.00 0.00 0.00 0.00 0.00 0.00 0.00 0.00 0.00 0.01 0.02 0.01 0.02 0.02 0.01 0.00 0.02 0.01 0.00 0.00 0.00 0.00 0.00 0.00 0.00 0.01 0.03 0.03 0.00 0.00 0.00 0.00 0.00 0.00 0.00 0.00 0.00 0.00 0.00
0.00 0.00 0.00 0.00 0.00 0.00 0.00 0.00 0.00 0.00 0.00 0.00 0.00 0.01 0.00 0.00 0.00 0.00 0.00 0.00 0.00 0.00 0.00 0.00 0.00 0.00 0.00 0.00 0.00 0.00 0.00 0.00 0.00 0.00 0.00 0.00 0.00 0.00 0.00 0.00 0.00 0.00 0.00 0.00
0.00 0.00 0.01 0.02 0.01 0.01 0.00 0.00 0.00 0.00 0.00 0.00 0.00 0.00 0.01 0.01 0.00 0.00 0.00 0.00 0.00 0.00 0.00 0.00 0.00 0.00 0.00 0.00 0.00 0.00 0.00 0.00 0.00 0.00 0.00 0.00 0.00 0.00 0.00 0.00 0.00 0.00 0.00 0.00
0.00 0.01 0.01 0.00 0.01 0.02 0.03 0.01 0.00 0.00 0.00 0.00 0.00 0.00 0.00 0.00 0.00 0.00 0.00 0.00 0.00 0.00 0.00 0.00 0.00 0.00 0.00 0.00 0.00 0.00 0.00 0.00 0.00 0.00 0.00 0.00 0.00 0.00 0.00 0.00 0.00 0.00 0.00 0.00

GFSNW_prec_prec_165.txt.gz
QPF
0.00 0.00 0.02 0.03 0.03 0.03 0.04 0.05 0.05 0.03 0.06 0.06 0.03 0.00 0.00 0.00 0.00 0.00 0.00 0.00 0.00 0.00 0.00 0.00 0.00 0.00 0.00 0.00 0.00 0.00 0.00 0.01 0.00 0.00 0.00 0.00 0.00 0.00 0.00 0.03 0.01 0.01 0.00 0.00
0.00 0.00 0.02 0.05 0.08 0.06 0.05 0.09 0.09 0.05 0.08 0.05 0.01 0.00 0.00 0.00 0.00 0.00 0.00 0.00 0.00 0.00 0.00 0.00 0.00 0.00 0.00 0.00 0.00 0.00 0.00 0.00 0.00 0.00 0.00 0.00 0.01 0.00 0.01 0.02 0.01 0.01 0.02 0.00
0.00 0.00 0.02 0.05 0.18 0.27 0.14 0.12 0.12 0.15 0.13 0.04 0.01 0.01 0.01 0.00 0.00 0.00 0.00 0.00 0.00 0.00 0.00 0.00 0.00 0.00 0.00 0.00 0.00 0.00 0.00 0.00 0.00 0.00 0.00 0.02 0.05 0.05 0.02 0.05 0.13 0.06 0.04 0.02
0.00 0.00 0.00 0.07 0.19 0.43 0.47 0.26 0.12 0.04 0.10 0.04 0.02 0.02 0.02 0.01 0.01 0.01 0.00 0.01 0.00 0.00 0.00 0.00 0.00 0.00 0.00 0.00 0.00 0.00 0.00 0.00 0.00 0.00 0.00 0.00 0.00 0.00 0.00 0.01 0.02 0.02 0.01 0.01
0.01 0.01 0.01 0.02 0.18 0.44 0.49 0.31 0.09 0.02 0.01 0.01 0.02 0.03 0.01 0.01 0.01 0.02 0.03 0.02 0.01 0.01 0.00 0.00 0.00 0.00 0.00 0.00 0.02 0.00 0.01 0.00 0.01 0.00 0.00 0.00 0.00 0.00 0.00 0.00 0.00 0.00 0.00 0.00
0.00 0.02 0.04 0.06 0.08 0.53 0.62 0.25 0.03 0.01 0.02 0.02 0.04 0.02 0.00 0.00 0.01 0.01 0.02 0.03 0.03 0.01 0.01 0.01 0.00 0.00 0.00 0.00 0.00 0.01 0.01 0.01 0.01 0.00 0.01 0.01 0.02 0.00 0.00 0.00 0.00 0.00 0.00 0.00
0.02 0.03 0.06 0.07 0.08 0.31 0.37 0.11 0.03 0.03 0.02 0.02 0.01 0.01 0.01 0.01 0.02 0.04 0.03 0.02 0.02 0.05 0.01 0.00 0.00 0.00 0.00 0.00 0.00 0.00 0.00 0.00 0.01 0.00 0.00 0.03 0.01 0.00 0.00 0.00 0.00 0.00 0.00 0.00
0.03 0.04 0.04 0.13 0.12 0.18 0.17 0.17 0.11 0.06 0.07 0.03 0.01 0.02 0.02 0.02 0.03 0.03 0.03 0.01 0.01 0.02 0.00 0.01 0.02 0.02 0.02 0.00 0.00 0.00 0.00 0.01 0.01 0.02 0.01 0.00 0.00 0.00 0.00 0.00 0.00 0.00 0.00 0.00
0.03 0.02 0.01 0.02 0.13 0.20 0.07 0.07 0.07 0.06 0.08 0.06 0.03 0.04 0.02 0.02 0.03 0.03 0.02 0.01 0.00 0.01 0.03 0.06 0.02 0.02 0.03 0.03 0.01 0.00 0.00 0.00 0.03 0.02 0.02 0.00 0.00 0.00 0.00 0.00 0.00 0.00 0.00 0.00
0.03 0.03 0.02 0.01 0.03 0.23 0.12 0.04 0.02 0.04 0.06 0.02 0.01 0.03 0.03 0.02 0.03 0.03 0.02 0.01 0.01 0.01 0.02 0.03 0.01 0.01 0.00 0.02 0.02 0.03 0.03 0.02 0.02 0.02 0.02 0.00 0.00 0.00 0.00 0.01 0.00 0.00 0.00 0.00
0.01 0.02 0.02 0.02 0.02 0.04 0.09 0.05 0.02 0.03 0.04 0.01 0.01 0.01 0.01 0.01 0.01 0.01 0.01 0.03 0.02 0.03 0.02 0.02 0.02 0.01 0.00 0.00 0.00 0.00 0.03 0.06 0.05 0.04 0.04 0.02 0.00 0.00 0.00 0.00 0.00 0.00 0.00 0.00
0.00 0.01 0.01 0.02 0.02 0.02 0.01 0.02 0.03 0.04 0.05 0.02 0.01 0.00 0.00 0.00 0.00 0.00 0.01 0.03 0.00 0.01 0.02 0.01 0.01 0.01 0.01 0.01 0.01 0.00 0.00 0.00 0.01 0.04 0.04 0.00 0.00 0.00 0.01 0.00 0.00 0.01 0.00 0.00
0.00 0.00 0.00 0.01 0.02 0.02 0.01 0.01 0.02 0.04 0.02 0.01 0.00 0.00 0.00 0.00 0.00 0.00 0.02 0.01 0.00 0.00 0.01 0.04 0.04 0.03 0.01 0.01 0.01 0.02 0.01 0.01 0.03 0.02 0.00 0.00 0.01 0.01 0.00 0.00 0.01 0.05 0.03 0.00
0.00 0.00 0.00 0.00 0.01 0.01 0.02 0.03 0.03 0.03 0.03 0.02 0.00 0.00 0.00 0.00 0.00 0.00 0.00 0.00 0.00 0.01 0.02 0.05 0.06 0.06 0.04 0.03 0.03 0.04 0.03 0.04 0.06 0.03 0.00 0.00 0.00 0.01 0.02 0.00 0.00 0.03 0.04 0.01
0.00 0.00 0.01 0.01 0.01 0.01 0.04 0.06 0.04 0.03 0.03 0.04 0.07 0.03 0.02 0.01 0.00 0.01 0.00 0.01 0.02 0.03 0.05 0.06 0.03 0.04 0.05 0.04 0.04 0.02 0.02 0.03 0.04 0.02 0.01 0.02 0.04 0.03 0.00 0.01 0.00 0.00 0.00 0.00
0.01 0.01 0.01 0.01 0.02 0.04 0.15 0.19 0.08 0.04 0.03 0.09 0.04 0.04 0.03 0.02 0.01 0.02 0.02 0.03 0.03 0.03 0.04 0.06 0.04 0.04 0.05 0.05 0.06 0.02 0.01 0.00 0.01 0.02 0.02 0.03 0.03 0.00 0.00 0.01 0.01 0.00 0.00 0.00
0.02 0.02 0.02 0.02 0.01 0.07 0.26 0.11 0.03 0.00 0.06 0.17 0.06 0.02 0.02 0.01 0.03 0.03 0.05 0.06 0.06 0.05 0.06 0.04 0.02 0.04 0.12 0.06 0.02 0.02 0.03 0.02 0.02 0.01 0.00 0.00 0.00 0.00 0.00 0.00 0.00 0.00 0.00 0.00
0.10 0.07 0.04 0.06 0.12 0.20 0.21 0.05 0.01 0.02 0.05 0.06 0.05 0.02 0.02 0.02 0.06 0.05 0.04 0.06 0.07 0.05 0.04 0.03 0.03 0.01 0.06 0.03 0.00 0.00 0.00 0.00 0.00 0.00 0.00 0.01 0.01 0.00 0.00 0.00 0.00 0.00 0.00 0.00
0.14 0.22 0.21 0.25 0.34 0.35 0.12 0.04 0.08 0.10 0.15 0.06 0.01 0.01 0.02 0.03 0.06 0.04 0.03 0.04 0.05 0.03 0.03 0.01 0.03 0.04 0.02 0.00 0.00 0.00 0.00 0.00 0.00 0.00 0.00 0.01 0.04 0.01 0.00 0.00 0.00 0.00 0.00 0.00
0.17 0.34 0.46 0.34 0.15 0.05 0.10 0.37 0.36 0.24 0.11 0.05 0.02 0.00 0.02 0.17 0.09 0.04 0.04 0.05 0.04 0.04 0.01 0.02 0.03 0.00 0.00 0.00 0.00 0.00 0.00 0.00 0.00 0.00 0.00 0.00 0.00 0.00 0.00 0.00 0.00 0.00 0.00 0.00
0.18 0.27 0.15 0.05 0.03 0.06 0.09 0.10 0.08 0.04 0.03 0.01 0.00 0.00 0.02 0.07 0.09 0.04 0.04 0.05 0.04 0.05 0.03 0.01 0.01 0.00 0.00 0.00 0.00 0.00 0.00 0.00 0.00 0.00 0.00 0.00 0.00 0.00 0.00 0.00 0.00 0.00 0.00 0.00
0.06 0.07 0.15 0.11 0.08 0.10 0.08 0.03 0.03 0.01 0.01 0.00 0.00 0.01 0.02 0.04 0.08 0.07 0.04 0.07 0.06 0.06 0.04 0.02 0.00 0.00 0.00 0.00 0.00 0.00 0.00 0.00 0.00 0.00 0.00 0.00 0.01 0.02 0.00 0.00 0.00 0.00 0.00 0.00
0.04 0.07 0.09 0.05 0.04 0.03 0.04 0.02 0.01 0.01 0.01 0.00 0.01 0.02 0.02 0.02 0.06 0.08 0.04 0.03 0.04 0.04 0.03 0.01 0.00 0.00 0.00 0.00 0.00 0.00 0.00 0.00 0.00 0.00 0.00 0.00 0.00 0.00 0.00 0.00 0.00 0.00 0.00 0.00
0.04 0.05 0.03 0.03 0.01 0.01 0.01 0.01 0.00 0.00 0.00 0.00 0.00 0.01 0.04 0.04 0.03 0.08 0.05 0.02 0.02 0.02 0.01 0.00 0.00 0.00 0.00 0.00 0.00 0.00 0.00 0.00 0.00 0.00 0.00 0.00 0.00 0.00 0.00 0.00 0.00 0.00 0.00 0.00
0.02 0.01 0.01 0.00 0.01 0.01 0.01 0.01 0.01 0.00 0.00 0.00 0.02 0.02 0.02 0.02 0.02 0.01 0.07 0.03 0.01 0.01 0.00 0.01 0.00 0.00 0.00 0.00 0.00 0.00 0.01 0.01 0.02 0.01 0.00 0.00 0.00 0.00 0.00 0.00 0.00 0.00 0.00 0.00
0.00 0.01 0.01 0.01 0.01 0.00 0.01 0.00 0.00 0.00 0.01 0.03 0.05 0.03 0.03 0.02 0.02 0.02 0.01 0.02 0.01 0.01 0.00 0.00 0.00 0.00 0.00 0.00 0.01 0.01 0.02 0.04 0.04 0.03 0.02 0.01 0.00 0.00 0.00 0.00 0.00 0.00 0.00 0.00
0.05 0.07 0.04 0.02 0.02 0.01 0.01 0.00 0.00 0.01 0.02 0.03 0.05 0.04 0.03 0.03 0.02 0.01 0.01 0.01 0.01 0.00 0.00 0.00 0.00 0.00 0.00 0.01 0.02 0.01 0.03 0.10 0.10 0.04 0.03 0.02 0.00 0.00 0.00 0.00 0.00 0.00 0.00 0.00

GFSNW_prec_prec_168.txt.gz
QPF
0.00 0.00 0.00 0.00 0.02 0.04 0.08 0.10 0.08 0.02 0.09 0.10 0.05 0.02 0.00 0.00 0.00 0.00 0.00 0.00 0.00 0.00 0.00 0.00 0.00 0.00 0.00 0.00 0.00 0.00 0.00 0.02 0.01 0.00 0.00 0.00 0.00 0.00 0.00 0.03 0.01 0.01 0.00 0.00
0.00 0.00 0.00 0.00 0.00 0.05 0.09 0.31 0.24 0.07 0.13 0.09 0.03 0.00 0.00 0.00 0.00 0.00 0.00 0.00 0.00 0.00 0.00 0.00 0.00 0.00 0.00 0.00 0.00 0.00 0.00 0.00 0.00 0.00 0.00 0.00 0.00 0.00 0.01 0.02 0.04 0.05 0.03 0.01
0.00 0.00 0.00 0.00 0.02 0.07 0.09 0.22 0.29 0.17 0.10 0.07 0.02 0.01 0.00 0.00 0.00 0.00 0.00 0.00 0.00 0.00 0.00 0.00 0.00 0.00 0.01 0.01 0.00 0.00 0.00 0.00 0.00 0.00 0.00 0.00 0.01 0.01 0.01 0.04 0.08 0.05 0.02 0.00
0.00 0.00 0.00 0.00 0.01 0.07 0.20 0.31 0.21 0.10 0.08 0.03 0.01 0.01 0.02 0.01 0.00 0.00 0.00 0.00 0.00 0.00 0.00 0.00 0.00 0.00 0.00 0.01 0.00 0.00 0.00 0.00 0.00 0.00 0.00 0.00 0.00 0.00 0.00 0.03 0.05 0.09 0.02 0.00
0.00 0.00 0.00 0.00 0.00 0.05 0.23 0.41 0.21 0.09 0.02 0.01 0.02 0.02 0.03 0.02 0.00 0.01 0.02 0.01 0.00 0.00 0.00 0.00 0.00 0.00 0.00 0.00 0.00 0.00 0.00 0.00 0.00 0.00 0.00 0.00 0.00 0.00 0.00 0.00 0.00 0.00 0.00 0.00
0.00 0.00 0.00 0.01 0.02 0.06 0.19 0.33 0.26 0.19 0.13 0.03 0.05 0.02 0.01 0.01 0.01 0.00 0.01 0.04 0.05 0.03 0.03 0.03 0.00 0.00 0.01 0.00 0.00 0.00 0.02 0.03 0.02 0.01 0.00 0.00 0.01 0.00 0.00 0.00 0.00 0.00 0.00 0.00
0.00 0.00 0.01 0.02 0.04 0.12 0.09 0.10 0.17 0.26 0.23 0.10 0.04 0.01 0.02 0.01 0.00 0.00 0.00 0.01 0.03 0.05 0.01 0.00 0.00 0.00 0.00 0.00 0.00 0.00 0.01 0.01 0.01 0.01 0.01 0.01 0.00 0.00 0.00 0.00 0.00 0.00 0.00 0.00
0.00 0.00 0.01 0.01 0.03 0.10 0.14 0.17 0.18 0.24 0.15 0.08 0.05 0.03 0.02 0.01 0.00 0.00 0.03 0.02 0.02 0.00 0.00 0.01 0.01 0.00 0.00 0.00 0.00 0.00 0.00 0.00 0.01 0.01 0.01 0.00 0.00 0.00 0.00 0.00 0.00 0.00 0.00 0.00
0.00 0.00 0.02 0.03 0.07 0.20 0.12 0.15 0.22 0.21 0.13 0.08 0.06 0.06 0.02 0.03 0.02 0.03 0.03 0.01 0.00 0.00 0.00 0.03 0.04 0.01 0.01 0.01 0.01 0.00 0.00 0.00 0.03 0.02 0.03 0.01 0.00 0.00 0.00 0.00 0.00 0.00 0.00 0.00
0.00 0.01 0.02 0.02 0.01 0.24 0.33 0.12 0.10 0.11 0.08 0.03 0.01 0.01 0.03 0.03 0.04 0.03 0.04 0.02 0.01 0.00 0.01 0.01 0.02 0.01 0.00 0.01 0.02 0.02 0.03 0.02 0.01 0.01 0.02 0.00 0.00 0.00 0.00 0.05 0.02 0.00 0.01 0.03
0.02 0.01 0.02 0.02 0.01 0.05 0.22 0.19 0.05 0.03 0.04 0.03 0.00 0.01 0.01 0.01 0.06 0.08 0.04 0.05 0.04 0.02 0.02 0.01 0.01 0.01 0.00 0.01 0.00 0.00 0.03 0.15 0.15 0.08 0.03 0.02 0.00 0.00 0.00 0.00 0.00 0.00 0.01 0.04
0.02 0.02 0.01 0.01 0.01 0.00 0.01 0.08 0.02 0.03 0.04 0.04 0.00 0.00 0.00 0.00 0.00 0.02 0.03 0.08 0.03 0.02 0.02 0.01 0.01 0.02 0.02 0.02 0.01 0.00 0.00 0.00 0.02 0.13 0.12 0.01 0.01 0.02 0.02 0.02 0.03 0.07 0.04 0.01
0.01 0.02 0.01 0.01 0.01 0.01 0.00 0.05 0.06 0.03 0.01 0.00 0.00 0.00 0.00 0.00 0.00 0.00 0.00 0.00 0.00 0.01 0.01 0.02 0.01 0.01 0.01 0.01 0.01 0.01 0.00 0.00 0.00 0.01 0.00 0.00 0.00 0.01 0.01 0.01 0.03 0.01 0.00 0.00
0.00 0.00 0.01 0.01 0.01 0.02 0.00 0.01 0.04 0.03 0.02 0.00 0.00 0.00 0.00 0.00 0.00 0.00 0.00 0.00 0.00 0.00 0.00 0.02 0.01 0.01 0.01 0.02 0.01 0.01 0.00 0.02 0.05 0.06 0.04 0.01 0.00 0.00 0.02 0.04 0.00 0.00 0.00 0.01
0.00 0.00 0.00 0.00 0.00 0.00 0.01 0.01 0.01 0.01 0.02 0.04 0.09 0.02 0.00 0.00 0.00 0.00 0.00 0.00 0.00 0.01 0.02 0.03 0.02 0.01 0.02 0.02 0.03 0.01 0.00 0.01 0.02 0.02 0.01 0.04 0.08 0.09 0.08 0.11 0.03 0.00 0.00 0.00
0.00 0.00 0.00 0.00 0.00 0.02 0.05 0.03 0.01 0.00 0.01 0.06 0.02 0.03 0.01 0.00 0.00 0.00 0.00 0.00 0.02 0.03 0.03 0.04 0.03 0.03 0.09 0.06 0.01 0.00 0.00 0.00 0.00 0.01 0.00 0.02 0.08 0.10 0.04 0.01 0.01 0.01 0.00 0.00
0.01 0.01 0.00 0.01 0.01 0.05 0.05 0.05 0.02 0.00 0.02 0.06 0.05 0.02 0.03 0.02 0.03 0.02 0.02 0.04 0.05 0.05 0.05 0.04 0.03 0.03 0.07 0.05 0.00 0.00 0.00 0.01 0.04 0.06 0.04 0.04 0.02 0.01 0.00 0.00 0.01 0.01 0.01 0.00
0.01 0.02 0.03 0.03 0.03 0.05 0.04 0.01 0.02 0.03 0.04 0.04 0.05 0.03 0.06 0.01 0.03 0.04 0.03 0.06 0.08 0.08 0.06 0.02 0.02 0.01 0.04 0.02 0.00 0.00 0.00 0.00 0.01 0.14 0.05 0.02 0.00 0.01 0.00 0.00 0.00 0.00 0.00 0.00
0.09 0.12 0.18 0.21 0.34 0.29 0.04 0.00 0.02 0.12 0.15 0.11 0.03 0.00 0.04 0.01 0.02 0.06 0.05 0.06 0.07 0.04 0.03 0.01 0.02 0.02 0.02 0.00 0.00 0.00 0.00 0.00 0.00 0.00 0.01 0.00 0.01 0.05 0.01 0.00 0.00 0.00 0.01 0.00
0.16 0.31 0.35 0.24 0.09 0.03 0.03 0.18 0.28 0.25 0.17 0.08 0.03 0.01 0.03 0.02 0.04 0.07 0.03 0.04 0.03 0.03 0.01 0.01 0.02 0.00 0.00 0.00 0.00 0.00 0.00 0.00 0.00 0.00 0.00 0.00 0.01 0.04 0.01 0.00 0.00 0.01 0.01 0.00
0.15 0.21 0.15 0.03 0.02 0.03 0.12 0.11 0.09 0.06 0.04 0.01 0.00 0.01 0.03 0.02 0.09 0.06 0.03 0.03 0.02 0.03 0.02 0.00 0.00 0.00 0.00 0.00 0.00 0.00 0.00 0.00 0.00 0.00 0.00 0.00 0.00 0.00 0.01 0.01 0.00 0.00 0.00 0.00
0.09 0.09 0.15 0.16 0.10 0.09 0.09 0.05 0.03 0.01 0.00 0.01 0.00 0.00 0.03 0.05 0.03 0.12 0.03 0.05 0.04 0.04 0.07 0.02 0.00 0.00 0.01 0.00 0.00 0.00 0.00 0.00 0.00 0.00 0.00 0.00 0.00 0.02 0.03 0.02 0.01 0.00 0.00 0.00
0.13 0.09 0.13 0.11 0.05 0.07 0.03 0.01 0.01 0.00 0.01 0.01 0.00 0.00 0.03 0.05 0.04 0.10 0.06 0.03 0.07 0.06 0.07 0.03 0.00 0.03 0.03 0.00 0.00 0.00 0.00 0.00 0.00 0.00 0.00 0.00 0.00 0.01 0.03 0.02 0.00 0.00 0.00 0.00
0.09 0.05 0.04 0.07 0.03 0.01 0.02 0.02 0.00 0.00 0.00 0.00 0.00 0.02 0.03 0.04 0.03 0.09 0.04 0.02 0.04 0.02 0.01 0.00 0.02 0.01 0.00 0.00 0.00 0.00 0.00 0.00 0.00 0.00 0.00 0.00 0.01 0.00 0.00 0.00 0.00 0.00 0.00 0.00
0.07 0.06 0.04 0.02 0.04 0.02 0.02 0.02 0.04 0.04 0.02 0.01 0.02 0.04 0.07 0.06 0.03 0.02 0.04 0.06 0.02 0.01 0.02 0.01 0.00 0.00 0.00 0.00 0.00 0.00 0.00 0.00 0.00 0.00 0.00 0.01 0.01 0.01 0.00 0.00 0.00 0.00 0.00 0.00
0.01 0.00 0.02 0.01 0.01 0.01 0.00 0.00 0.00 0.02 0.03 0.05 0.06 0.06 0.04 0.02 0.01 0.01 0.00 0.02 0.03 0.03 0.00 0.00 0.00 0.00 0.00 0.00 0.00 0.00 0.01 0.01 0.01 0.02 0.02 0.02 0.02 0.01 0.00 0.00 0.00 0.00 0.00 0.00
0.05 0.06 0.04 0.02 0.02 0.00 0.00 0.00 0.00 0.01 0.05 0.03 0.02 0.03 0.02 0.01 0.01 0.01 0.02 0.02 0.01 0.00 0.00 0.00 0.00 0.00 0.00 0.00 0.01 0.01 0.02 0.02 0.02 0.05 0.07 0.06 0.02 0.00 0.00 0.00 0.00 0.00 0.00 0.00

GFSNW_prec_prec_171.txt.gz
QPF
0.00 0.00 0.00 0.00 0.00 0.02 0.07 0.13 0.25 0.05 0.08 0.11 0.08 0.04 0.00 0.00 0.00 0.00 0.00 0.00 0.00 0.00 0.00 0.00 0.00 0.00 0.00 0.00 0.00 0.00 0.00 0.00 0.01 0.00 0.00 0.00 0.02 0.03 0.07 0.22 0.17 0.08 0.02 0.00
0.01 0.00 0.00 0.00 0.00 0.02 0.07 0.09 0.06 0.05 0.12 0.09 0.03 0.00 0.00 0.00 0.00 0.00 0.00 0.00 0.00 0.00 0.00 0.01 0.00 0.00 0.00 0.00 0.00 0.00 0.00 0.00 0.00 0.00 0.01 0.00 0.02 0.07 0.04 0.04 0.10 0.09 0.06 0.01
0.00 0.00 0.00 0.00 0.00 0.01 0.07 0.16 0.17 0.07 0.17 0.26 0.11 0.02 0.00 0.00 0.00 0.00 0.00 0.00 0.00 0.00 0.00 0.01 0.01 0.00 0.00 0.00 0.00 0.00 0.00 0.01 0.00 0.00 0.00 0.00 0.01 0.01 0.00 0.00 0.01 0.02 0.04 0.02
0.00 0.00 0.00 0.00 0.00 0.01 0.07 0.13 0.14 0.04 0.06 0.10 0.10 0.08 0.02 0.01 0.00 0.00 0.00 0.01 0.00 0.00 0.01 0.01 0.00 0.00 0.00 0.00 0.00 0.00 0.00 0.00 0.00 0.00 0.00 0.00 0.00 0.00 0.00 0.00 0.00 0.00 0.00 0.01
0.01 0.00 0.00 0.00 0.00 0.02 0.04 0.08 0.15 0.13 0.04 0.01 0.02 0.03 0.03 0.01 0.00 0.00 0.00 0.01 0.00 0.00 0.01 0.01 0.01 0.00 0.00 0.01 0.02 0.02 0.01 0.00 0.00 0.00 0.00 0.00 0.00 0.00 0.00 0.00 0.00 0.00 0.00 0.00
0.00 0.00 0.00 0.00 0.00 0.04 0.01 0.00 0.02 0.14 0.15 0.08 0.09 0.02 0.00 0.00 0.01 0.01 0.01 0.03 0.02 0.00 0.00 0.00 0.00 0.00 0.00 0.00 0.00 0.02 0.03 0.02 0.00 0.00 0.00 0.00 0.01 0.00 0.00 0.00 0.00 0.00 0.00 0.00
0.00 0.00 0.00 0.00 0.00 0.03 0.01 0.01 0.02 0.06 0.05 0.09 0.10 0.04 0.01 0.01 0.01 0.03 0.01 0.02 0.02 0.00 0.00 0.00 0.00 0.00 0.00 0.00 0.00 0.00 0.00 0.01 0.02 0.01 0.00 0.01 0.00 0.00 0.00 0.00 0.00 0.00 0.00 0.00
0.01 0.01 0.01 0.00 0.00 0.03 0.02 0.01 0.03 0.06 0.08 0.06 0.09 0.13 0.16 0.08 0.02 0.02 0.04 0.07 0.01 0.00 0.00 0.00 0.00 0.00 0.00 0.00 0.00 0.00 0.00 0.00 0.00 0.00 0.00 0.00 0.00 0.00 0.00 0.00 0.00 0.00 0.00 0.00
0.01 0.01 0.00 0.01 0.02 0.05 0.03 0.01 0.04 0.15 0.14 0.06 0.13 0.17 0.09 0.15 0.06 0.04 0.04 0.03 0.00 0.00 0.00 0.00 0.00 0.00 0.00 0.00 0.00 0.00 0.00 0.00 0.00 0.00 0.00 0.00 0.00 0.00 0.00 0.01 0.02 0.00 0.00 0.00
0.01 0.00 0.01 0.02 0.02 0.01 0.02 0.04 0.04 0.14 0.17 0.04 0.05 0.12 0.16 0.17 0.15 0.07 0.04 0.05 0.02 0.00 0.00 0.00 0.00 0.00 0.00 0.00 0.00 0.01 0.02 0.03 0.01 0.00 0.01 0.00 0.00 0.00 0.00 0.03 0.04 0.00 0.01 0.00
0.00 0.00 0.03 0.03 0.01 0.01 0.03 0.12 0.17 0.17 0.09 0.01 0.01 0.04 0.07 0.04 0.09 0.16 0.10 0.05 0.02 0.00 0.00 0.00 0.00 0.00 0.00 0.00 0.00 0.00 0.00 0.04 0.09 0.11 0.09 0.03 0.00 0.00 0.01 0.00 0.00 0.02 0.02 0.05
0.01 0.03 0.04 0.04 0.00 0.00 0.02 0.07 0.10 0.21 0.18 0.02 0.00 0.00 0.00 0.00 0.00 0.02 0.14 0.13 0.02 0.01 0.00 0.00 0.00 0.00 0.00 0.00 0.00 0.00 0.00 0.00 0.00 0.03 0.06 0.02 0.00 0.01 0.01 0.05 0.14 0.14 0.11 0.07
0.03 0.03 0.03 0.04 0.03 0.00 0.01 0.06 0.05 0.06 0.02 0.00 0.00 0.00 0.00 0.00 0.00 0.00 0.00 0.00 0.00 0.02 0.02 0.02 0.01 0.00 0.00 0.00 0.00 0.00 0.00 0.00 0.00 0.00 0.00 0.00 0.00 0.00 0.00 0.01 0.03 0.06 0.10 0.05
0.02 0.03 0.03 0.03 0.03 0.03 0.02 0.02 0.05 0.04 0.02 0.00 0.00 0.00 0.00 0.00 0.00 0.00 0.00 0.00 0.00 0.01 0.01 0.03 0.02 0.00 0.00 0.00 0.00 0.00 0.00 0.00 0.00 0.00 0.00 0.00 0.00 0.00 0.00 0.02 0.04 0.03 0.11 0.05
0.00 0.00 0.01 0.01 0.02 0.01 0.00 0.00 0.00 0.01 0.01 0.02 0.00 0.00 0.00 0.00 0.00 0.00 0.00 0.00 0.00 0.00 0.01 0.01 0.01 0.00 0.00 0.00 0.00 0.00 0.00 0.00 0.00 0.00 0.00 0.00 0.01 0.01 0.02 0.05 0.07 0.01 0.00 0.00
0.00 0.00 0.00 0.00 0.00 0.01 0.01 0.00 0.00 0.00 0.01 0.02 0.00 0.00 0.00 0.00 0.00 0.00 0.00 0.00 0.00 0.00 0.00 0.01 0.00 0.00 0.01 0.01 0.00 0.00 0.00 0.00 0.00 0.00 0.00 0.00 0.02 0.13 0.17 0.06 0.01 0.02 0.00 0.00
0.00 0.01 0.01 0.01 0.01 0.02 0.01 0.01 0.01 0.00 0.01 0.00 0.00 0.00 0.00 0.00 0.00 0.00 0.00 0.00 0.01 0.02 0.01 0.00 0.00 0.00 0.03 0.02 0.00 0.00 0.00 0.00 0.00 0.00 0.00 0.00 0.03 0.04 0.05 0.01 0.00 0.00 0.00 0.00
0.01 0.01 0.01 0.02 0.02 0.02 0.02 0.00 0.01 0.03 0.01 0.00 0.00 0.00 0.01 0.00 0.01 0.01 0.01 0.01 0.02 0.02 0.01 0.00 0.00 0.00 0.02 0.02 0.00 0.00 0.00 0.00 0.00 0.01 0.03 0.02 0.03 0.02 0.00 0.00 0.00 0.00 0.00 0.00
0.01 0.03 0.07 0.16 0.12 0.04 0.00 0.00 0.02 0.10 0.11 0.04 0.01 0.00 0.01 0.01 0.01 0.01 0.03 0.02 0.03 0.03 0.01 0.00 0.01 0.00 0.01 0.00 0.00 0.00 0.00 0.00 0.00 0.01 0.05 0.01 0.01 0.00 0.00 0.00 0.00 0.00 0.00 0.01
0.09 0.26 0.27 0.17 0.03 0.00 0.02 0.07 0.05 0.04 0.07 0.04 0.01 0.00 0.01 0.02 0.04 0.15 0.07 0.02 0.01 0.01 0.00 0.00 0.00 0.00 0.00 0.00 0.00 0.00 0.00 0.00 0.00 0.02 0.01 0.00 0.00 0.00 0.00 0.00 0.00 0.00 0.01 0.01
0.25 0.18 0.04 0.01 0.01 0.03 0.08 0.08 0.06 0.03 0.01 0.00 0.00 0.00 0.00 0.01 0.03 0.05 0.03 0.01 0.00 0.00 0.00 0.00 0.00 0.00 0.00 0.00 0.00 0.00 0.00 0.00 0.00 0.00 0.00 0.00 0.00 0.00 0.00 0.00 0.00 0.00 0.00 0.00
0.12 0.09 0.06 0.15 0.17 0.10 0.07 0.06 0.02 0.01 0.00 0.00 0.00 0.00 0.01 0.08 0.08 0.07 0.03 0.02 0.01 0.01 0.03 0.01 0.00 0.01 0.01 0.02 0.01 0.01 0.00 0.00 0.00 0.00 0.00 0.00 0.00 0.00 0.00 0.01 0.01 0.01 0.01 0.00
0.20 0.17 0.13 0.13 0.08 0.08 0.02 0.02 0.00 0.00 0.00 0.00 0.00 0.00 0.02 0.04 0.06 0.04 0.06 0.01 0.02 0.09 0.18 0.06 0.03 0.07 0.10 0.05 0.04 0.02 0.01 0.00 0.00 0.00 0.00 0.00 0.00 0.00 0.00 0.01 0.01 0.02 0.01 0.00
0.08 0.05 0.04 0.04 0.05 0.02 0.01 0.01 0.00 0.00 0.00 0.01 0.00 0.00 0.01 0.03 0.03 0.04 0.06 0.01 0.03 0.02 0.01 0.01 0.01 0.01 0.00 0.00 0.00 0.00 0.00 0.00 0.00 0.00 0.00 0.00 0.00 0.00 0.00 0.00 0.01 0.01 0.00 0.00
0.08 0.07 0.07 0.01 0.04 0.04 0.02 0.03 0.03 0.02 0.04 0.05 0.02 0.01 0.04 0.04 0.02 0.01 0.02 0.02 0.02 0.01 0.02 0.01 0.00 0.00 0.00 0.00 0.00 0.00 0.00 0.00 0.00 0.00 0.00 0.00 0.00 0.00 0.01 0.01 0.00 0.00 0.00 0.00
0.04 0.02 0.03 0.02 0.03 0.01 0.00 0.01 0.04 0.03 0.06 0.09 0.06 0.04 0.04 0.03 0.02 0.01 0.00 0.01 0.03 0.06 0.04 0.01 0.00 0.00 0.00 0.00 0.00 0.00 0.00 0.00 0.00 0.00 0.00 0.00 0.00 0.01 0.01 0.00 0.00 0.00 0.00 0.00
0.01 0.01 0.01 0.01 0.01 0.00 0.00 0.00 0.00 0.03 0.06 0.04 0.04 0.02 0.02 0.01 0.01 0.00 0.01 0.01 0.00 0.00 0.00 0.00 0.00 0.00 0.00 0.00 0.00 0.00 0.00 0.01 0.01 0.01 0.02 0.02 0.03 0.03 0.00 0.00 0.00 0.00 0.00 0.00

GFSNW_prec_prec_174.txt.gz
QPF
0.02 0.02 0.00 0.00 0.00 0.00 0.05 0.04 0.02 0.00 0.01 0.05 0.19 0.14 0.01 0.00 0.00 0.00 0.00 0.00 0.00 0.00 0.00 0.00 0.00 0.00 0.00 0.00 0.00 0.00 0.00 0.00 0.00 0.00 0.00 0.00 0.01 0.04 0.12 0.20 0.23 0.20 0.09 0.08
0.01 0.02 0.03 0.01 0.00 0.00 0.02 0.05 0.02 0.00 0.06 0.23 0.11 0.03 0.01 0.00 0.00 0.00 0.00 0.00 0.00 0.00 0.00 0.00 0.00 0.00 0.00 0.00 0.00 0.00 0.00 0.01 0.00 0.00 0.00 0.00 0.02 0.06 0.09 0.14 0.16 0.13 0.26 0.24
0.01 0.01 0.03 0.02 0.01 0.01 0.01 0.02 0.04 0.00 0.02 0.04 0.10 0.15 0.08 0.01 0.00 0.00 0.00 0.00 0.00 0.00 0.00 0.00 0.00 0.00 0.00 0.00 0.00 0.00 0.00 0.00 0.00 0.00 0.00 0.00 0.01 0.01 0.00 0.00 0.00 0.01 0.04 0.02
0.01 0.01 0.02 0.01 0.01 0.03 0.00 0.01 0.01 0.02 0.07 0.05 0.03 0.07 0.14 0.07 0.01 0.00 0.00 0.00 0.00 0.00 0.00 0.00 0.00 0.00 0.00 0.00 0.00 0.00 0.00 0.00 0.00 0.00 0.00 0.00 0.00 0.00 0.01 0.01 0.01 0.01 0.01 0.00
0.03 0.03 0.01 0.00 0.01 0.03 0.00 0.00 0.00 0.00 0.00 0.01 0.04 0.07 0.10 0.08 0.06 0.04 0.01 0.02 0.00 0.01 0.01 0.00 0.00 0.00 0.00 0.00 0.00 0.00 0.01 0.00 0.00 0.00 0.00 0.00 0.00 0.00 0.00 0.00 0.00 0.00 0.00 0.00
0.02 0.03 0.02 0.01 0.01 0.02 0.00 0.00 0.00 0.00 0.01 0.01 0.05 0.04 0.02 0.02 0.02 0.01 0.01 0.02 0.03 0.01 0.00 0.01 0.00 0.00 0.00 0.00 0.00 0.00 0.02 0.06 0.05 0.03 0.00 0.00 0.00 0.00 0.00 0.00 0.00 0.00 0.00 0.00
0.02 0.01 0.01 0.01 0.01 0.02 0.00 0.00 0.00 0.00 0.00 0.00 0.00 0.00 0.00 0.00 0.01 0.01 0.00 0.03 0.02 0.01 0.02 0.01 0.00 0.00 0.00 0.00 0.00 0.00 0.00 0.01 0.06 0.07 0.03 0.02 0.00 0.00 0.00 0.00 0.00 0.00 0.00 0.00
0.01 0.00 0.00 0.00 0.00 0.02 0.01 0.00 0.00 0.00 0.01 0.00 0.00 0.00 0.00 0.00 0.00 0.00 0.01 0.02 0.03 0.02 0.03 0.05 0.05 0.00 0.00 0.00 0.00 0.00 0.00 0.00 0.03 0.05 0.03 0.01 0.00 0.00 0.00 0.00 0.00 0.00 0.00 0.00
0.01 0.01 0.01 0.01 0.01 0.02 0.03 0.00 0.00 0.01 0.01 0.01 0.01 0.03 0.04 0.08 0.15 0.05 0.10 0.08 0.07 0.07 0.05 0.03 0.02 0.00 0.00 0.00 0.00 0.00 0.00 0.00 0.00 0.02 0.03 0.01 0.00 0.00 0.00 0.00 0.00 0.00 0.00 0.00
0.01 0.00 0.01 0.00 0.03 0.03 0.01 0.00 0.00 0.01 0.04 0.01 0.03 0.07 0.07 0.08 0.12 0.18 0.22 0.16 0.12 0.13 0.07 0.01 0.00 0.00 0.00 0.00 0.00 0.00 0.00 0.00 0.01 0.01 0.01 0.00 0.00 0.00 0.00 0.00 0.00 0.00 0.01 0.01
0.00 0.01 0.01 0.01 0.01 0.02 0.00 0.00 0.00 0.02 0.07 0.01 0.01 0.02 0.09 0.17 0.14 0.19 0.24 0.17 0.16 0.08 0.01 0.00 0.00 0.00 0.00 0.00 0.00 0.00 0.00 0.00 0.01 0.04 0.09 0.03 0.00 0.00 0.00 0.01 0.00 0.00 0.01 0.00
0.00 0.01 0.01 0.01 0.02 0.02 0.00 0.01 0.00 0.08 0.24 0.07 0.00 0.00 0.03 0.12 0.08 0.03 0.23 0.14 0.06 0.01 0.00 0.00 0.00 0.00 0.00 0.00 0.00 0.00 0.00 0.00 0.00 0.01 0.01 0.00 0.00 0.00 0.00 0.00 0.00 0.00 0.01 0.01
0.00 0.00 0.01 0.04 0.04 0.00 0.00 0.04 0.07 0.17 0.25 0.08 0.01 0.00 0.00 0.00 0.00 0.00 0.01 0.01 0.01 0.00 0.00 0.00 0.00 0.00 0.00 0.00 0.00 0.00 0.00 0.00 0.00 0.00 0.00 0.00 0.00 0.00 0.00 0.00 0.00 0.00 0.02 0.05
0.00 0.01 0.02 0.02 0.06 0.07 0.03 0.02 0.09 0.03 0.01 0.00 0.00 0.00 0.00 0.00 0.00 0.00 0.00 0.00 0.00 0.00 0.00 0.00 0.00 0.00 0.00 0.00 0.00 0.00 0.00 0.00 0.00 0.00 0.00 0.00 0.00 0.00 0.00 0.00 0.00 0.02 0.07 0.16
0.00 0.01 0.02 0.02 0.02 0.02 0.01 0.00 0.00 0.00 0.00 0.00 0.00 0.00 0.00 0.00 0.00 0.00 0.00 0.00 0.00 0.00 0.01 0.03 0.02 0.00 0.00 0.00 0.00 0.00 0.00 0.00 0.00 0.00 0.00 0.00 0.00 0.00 0.00 0.00 0.00 0.02 0.04 0.02
0.00 0.00 0.00 0.00 0.00 0.00 0.00 0.00 0.00 0.00 0.00 0.00 0.00 0.00 0.00 0.00 0.00 0.00 0.00 0.00 0.00 0.00 0.00 0.00 0.01 0.00 0.00 0.00 0.00 0.00 0.00 0.00 0.00 0.00 0.00 0.00 0.00 0.00 0.00 0.00 0.00 0.01 0.01 0.01
0.00 0.00 0.00 0.00 0.02 0.00 0.00 0.00 0.00 0.00 0.00 0.00 0.00 0.00 0.00 0.00 0.00 0.00 0.00 0.00 0.00 0.00 0.00 0.00 0.00 0.00 0.01 0.00 0.00 0.00 0.00 0.00 0.00 0.00 0.00 0.00 0.00 0.00 0.00 0.01 0.00 0.00 0.00 0.00
0.01 0.03 0.03 0.03 0.02 0.01 0.00 0.00 0.00 0.03 0.01 0.01 0.00 0.00 0.00 0.00 0.00 0.00 0.00 0.00 0.00 0.00 0.00 0.00 0.00 0.00 0.00 0.00 0.00 0.00 0.00 0.00 0.00 0.00 0.00 0.00 0.00 0.00 0.00 0.00 0.00 0.00 0.00 0.00
0.03 0.02 0.02 0.01 0.00 0.00 0.00 0.00 0.00 0.00 0.07 0.09 0.01 0.00 0.00 0.00 0.00 0.00 0.00 0.00 0.00 0.00 0.00 0.00 0.00 0.00 0.00 0.00 0.00 0.00 0.00 0.00 0.00 0.00 0.01 0.00 0.00 0.00 0.00 0.00 0.00 0.01 0.00 0.00
0.05 0.05 0.06 0.02 0.00 0.00 0.00 0.00 0.00 0.00 0.01 0.03 0.01 0.00 0.00 0.00 0.00 0.02 0.11 0.09 0.01 0.00 0.00 0.00 0.00 0.00 0.00 0.00 0.00 0.00 0.00 0.00 0.00 0.01 0.01 0.00 0.00 0.00 0.00 0.00 0.00 0.00 0.01 0.01
0.11 0.07 0.02 0.00 0.01 0.03 0.03 0.03 0.03 0.00 0.00 0.00 0.00 0.00 0.00 0.00 0.00 0.01 0.05 0.03 0.00 0.00 0.00 0.00 0.00 0.00 0.01 0.00 0.00 0.00 0.00 0.00 0.00 0.00 0.00 0.00 0.00 0.00 0.00 0.00 0.00 0.00 0.02 0.03
0.05 0.07 0.09 0.12 0.10 0.12 0.05 0.05 0.01 0.00 0.00 0.00 0.00 0.00 0.00 0.00 0.01 0.02 0.03 0.02 0.00 0.00 0.00 0.01 0.00 0.01 0.05 0.01 0.00 0.00 0.00 0.00 0.00 0.00 0.00 0.00 0.00 0.00 0.00 0.00 0.00 0.00 0.02 0.03
0.22 0.18 0.11 0.07 0.07 0.05 0.02 0.01 0.00 0.00 0.00 0.00 0.00 0.00 0.00 0.00 0.08 0.06 0.10 0.01 0.00 0.01 0.12 0.03 0.00 0.01 0.07 0.03 0.02 0.00 0.00 0.00 0.00 0.00 0.00 0.00 0.00 0.00 0.00 0.00 0.00 0.00 0.01 0.00
0.09 0.06 0.08 0.02 0.05 0.00 0.00 0.00 0.00 0.00 0.00 0.00 0.00 0.00 0.00 0.00 0.02 0.02 0.02 0.02 0.01 0.02 0.02 0.01 0.00 0.00 0.00 0.00 0.00 0.00 0.00 0.00 0.00 0.00 0.00 0.00 0.00 0.00 0.00 0.00 0.00 0.00 0.01 0.00
0.14 0.03 0.03 0.01 0.00 0.01 0.01 0.01 0.02 0.01 0.01 0.01 0.01 0.00 0.01 0.02 0.00 0.00 0.00 0.01 0.01 0.03 0.07 0.06 0.05 0.03 0.00 0.00 0.00 0.00 0.00 0.00 0.00 0.00 0.00 0.00 0.00 0.00 0.00 0.00 0.00 0.00 0.00 0.00
0.11 0.03 0.07 0.08 0.03 0.01 0.00 0.00 0.02 0.02 0.01 0.03 0.03 0.02 0.00 0.02 0.01 0.00 0.00 0.00 0.01 0.02 0.02 0.00 0.01 0.01 0.00 0.00 0.00 0.00 0.00 0.00 0.00 0.00 0.01 0.02 0.02 0.02 0.01 0.01 0.00 0.00 0.00 0.00
0.06 0.00 0.00 0.00 0.01 0.01 0.00 0.00 0.01 0.02 0.05 0.05 0.01 0.00 0.00 0.00 0.00 0.00 0.00 0.00 0.00 0.00 0.00 0.00 0.00 0.00 0.00 0.00 0.00 0.00 0.00 0.00 0.00 0.01 0.01 0.01 0.02 0.02 0.02 0.02 0.01 0.00 0.00 0.00

GFSNW_prec_prec_180.txt.gz
QPF
0.00 0.00 0.00 0.00 0.00 0.00 0.01 0.01 0.01 0.00 0.01 0.03 0.04 0.03 0.01 0.00 0.00 0.00 0.00 0.00 0.00 0.00 0.00 0.00 0.00 0.00 0.00 0.00 0.00 0.00 0.00 0.02 0.00 0.00 0.00 0.00 0.00 0.00 0.00 0.05 0.08 0.12 0.14 0.14
0.00 0.00 0.00 0.00 0.00 0.01 0.01 0.04 0.02 0.01 0.05 0.05 0.01 0.00 0.00 0.00 0.00 0.00 0.01 0.01 0.00 0.00 0.00 0.00 0.00 0.00 0.00 0.00 0.00 0.00 0.00 0.04 0.05 0.00 0.00 0.00 0.01 0.00 0.00 0.01 0.02 0.04 0.11 0.10
0.01 0.01 0.01 0.00 0.00 0.01 0.04 0.08 0.04 0.00 0.03 0.04 0.05 0.05 0.04 0.02 0.00 0.02 0.03 0.08 0.06 0.05 0.03 0.00 0.00 0.00 0.00 0.00 0.00 0.00 0.02 0.01 0.02 0.01 0.00 0.00 0.00 0.00 0.00 0.00 0.01 0.00 0.01 0.00
0.02 0.01 0.00 0.01 0.01 0.02 0.00 0.03 0.03 0.00 0.00 0.01 0.04 0.06 0.09 0.03 0.01 0.00 0.02 0.07 0.04 0.04 0.08 0.05 0.01 0.00 0.00 0.00 0.00 0.00 0.02 0.02 0.01 0.00 0.00 0.00 0.00 0.00 0.00 0.00 0.00 0.00 0.00 0.00
0.01 0.00 0.00 0.01 0.02 0.01 0.00 0.01 0.00 0.00 0.00 0.00 0.00 0.01 0.02 0.00 0.00 0.02 0.04 0.12 0.10 0.11 0.12 0.05 0.03 0.01 0.00 0.00 0.00 0.01 0.01 0.02 0.02 0.01 0.00 0.01 0.00 0.00 0.00 0.00 0.00 0.00 0.00 0.00
0.00 0.00 0.00 0.02 0.03 0.00 0.00 0.00 0.00 0.00 0.00 0.00 0.00 0.00 0.00 0.00 0.00 0.00 0.00 0.01 0.04 0.04 0.05 0.09 0.12 0.06 0.04 0.01 0.00 0.01 0.02 0.04 0.05 0.06 0.01 0.02 0.03 0.00 0.00 0.00 0.00 0.00 0.00 0.00
0.00 0.00 0.01 0.02 0.03 0.00 0.00 0.00 0.00 0.00 0.00 0.00 0.00 0.00 0.00 0.00 0.00 0.00 0.00 0.00 0.00 0.00 0.00 0.02 0.02 0.01 0.01 0.00 0.00 0.01 0.01 0.02 0.04 0.04 0.02 0.05 0.00 0.00 0.00 0.00 0.00 0.00 0.00 0.00
0.00 0.01 0.02 0.02 0.02 0.01 0.00 0.00 0.00 0.00 0.00 0.00 0.00 0.00 0.00 0.00 0.00 0.00 0.00 0.00 0.00 0.00 0.00 0.01 0.03 0.03 0.03 0.01 0.00 0.00 0.00 0.02 0.04 0.04 0.02 0.00 0.00 0.00 0.00 0.00 0.00 0.00 0.00 0.00
0.00 0.01 0.01 0.02 0.02 0.02 0.00 0.00 0.00 0.00 0.00 0.00 0.00 0.00 0.00 0.00 0.00 0.00 0.00 0.00 0.00 0.00 0.01 0.04 0.06 0.07 0.04 0.02 0.00 0.00 0.01 0.03 0.06 0.03 0.01 0.00 0.00 0.00 0.00 0.00 0.00 0.00 0.00 0.00
0.00 0.00 0.00 0.00 0.01 0.02 0.01 0.00 0.00 0.00 0.01 0.00 0.00 0.00 0.00 0.00 0.00 0.01 0.00 0.01 0.02 0.03 0.03 0.03 0.02 0.02 0.01 0.01 0.00 0.00 0.02 0.05 0.05 0.01 0.01 0.00 0.00 0.00 0.00 0.00 0.00 0.00 0.00 0.00
0.00 0.00 0.00 0.00 0.00 0.04 0.01 0.00 0.00 0.00 0.01 0.00 0.00 0.00 0.00 0.00 0.01 0.03 0.02 0.08 0.07 0.12 0.10 0.04 0.02 0.00 0.00 0.00 0.00 0.00 0.00 0.00 0.00 0.00 0.02 0.00 0.00 0.00 0.00 0.00 0.00 0.00 0.00 0.00
0.00 0.00 0.00 0.00 0.00 0.04 0.01 0.00 0.00 0.02 0.04 0.02 0.00 0.00 0.00 0.00 0.01 0.05 0.09 0.15 0.24 0.41 0.36 0.20 0.08 0.01 0.00 0.00 0.00 0.00 0.00 0.00 0.00 0.00 0.00 0.00 0.00 0.00 0.00 0.00 0.00 0.00 0.00 0.00
0.00 0.00 0.00 0.01 0.02 0.05 0.02 0.00 0.02 0.10 0.12 0.06 0.00 0.00 0.00 0.00 0.00 0.01 0.13 0.06 0.15 0.16 0.17 0.16 0.16 0.08 0.01 0.00 0.00 0.00 0.00 0.00 0.00 0.00 0.00 0.00 0.00 0.00 0.00 0.00 0.00 0.00 0.00 0.00
0.00 0.00 0.00 0.00 0.02 0.06 0.03 0.00 0.02 0.11 0.19 0.09 0.00 0.00 0.00 0.00 0.00 0.00 0.00 0.00 0.01 0.01 0.02 0.04 0.03 0.03 0.03 0.03 0.01 0.00 0.00 0.00 0.00 0.00 0.00 0.00 0.00 0.00 0.00 0.00 0.00 0.00 0.00 0.00
0.00 0.00 0.00 0.01 0.02 0.05 0.04 0.02 0.01 0.01 0.04 0.02 0.00 0.00 0.00 0.00 0.00 0.00 0.00 0.00 0.00 0.00 0.00 0.01 0.00 0.00 0.00 0.00 0.00 0.00 0.00 0.00 0.00 0.00 0.00 0.00 0.00 0.00 0.00 0.00 0.00 0.00 0.00 0.00
0.00 0.00 0.00 0.00 0.02 0.00 0.00 0.00 0.00 0.00 0.00 0.00 0.00 0.00 0.00 0.00 0.00 0.00 0.00 0.00 0.00 0.00 0.00 0.00 0.00 0.00 0.00 0.00 0.00 0.00 0.00 0.00 0.00 0.00 0.00 0.00 0.00 0.00 0.00 0.00 0.00 0.00 0.00 0.00
0.00 0.00 0.00 0.00 0.00 0.00 0.00 0.00 0.00 0.01 0.01 0.00 0.00 0.00 0.00 0.00 0.00 0.00 0.00 0.00 0.00 0.00 0.00 0.00 0.00 0.00 0.00 0.00 0.00 0.00 0.00 0.00 0.00 0.00 0.00 0.00 0.00 0.00 0.00 0.00 0.00 0.00 0.00 0.00
0.00 0.00 0.00 0.00 0.00 0.00 0.00 0.00 0.00 0.00 0.00 0.00 0.00 0.00 0.00 0.00 0.00 0.00 0.00 0.00 0.00 0.00 0.00 0.00 0.00 0.00 0.00 0.00 0.00 0.00 0.00 0.00 0.00 0.00 0.00 0.00 0.00 0.00 0.00 0.00 0.00 0.00 0.00 0.00
0.01 0.00 0.00 0.00 0.00 0.00 0.00 0.00 0.00 0.00 0.00 0.00 0.01 0.00 0.00 0.00 0.00 0.00 0.00 0.00 0.00 0.00 0.00 0.00 0.00 0.00 0.00 0.00 0.00 0.00 0.00 0.00 0.00 0.00 0.00 0.00 0.00 0.00 0.00 0.00 0.00 0.00 0.00 0.00
0.00 0.00 0.00 0.00 0.00 0.00 0.01 0.02 0.01 0.02 0.01 0.01 0.01 0.00 0.00 0.00 0.00 0.00 0.00 0.00 0.00 0.00 0.00 0.00 0.01 0.00 0.00 0.00 0.01 0.00 0.00 0.00 0.00 0.00 0.00 0.00 0.00 0.00 0.00 0.00 0.00 0.00 0.00 0.00
0.00 0.00 0.00 0.00 0.00 0.03 0.04 0.03 0.02 0.01 0.02 0.01 0.00 0.00 0.00 0.00 0.00 0.00 0.00 0.00 0.00 0.01 0.00 0.01 0.00 0.00 0.00 0.02 0.06 0.01 0.00 0.00 0.00 0.00 0.00 0.00 0.00 0.00 0.00 0.00 0.00 0.00 0.00 0.00
0.00 0.01 0.02 0.04 0.05 0.06 0.04 0.01 0.01 0.01 0.00 0.00 0.00 0.00 0.00 0.00 0.00 0.00 0.00 0.00 0.02 0.01 0.02 0.04 0.02 0.00 0.00 0.05 0.04 0.00 0.00 0.00 0.00 0.00 0.00 0.00 0.00 0.00 0.00 0.00 0.00 0.00 0.00 0.00
0.03 0.03 0.06 0.07 0.05 0.05 0.03 0.00 0.00 0.00 0.00 0.00 0.00 0.00 0.00 0.00 0.00 0.00 0.00 0.03 0.01 0.01 0.02 0.01 0.00 0.00 0.05 0.10 0.03 0.00 0.00 0.00 0.00 0.00 0.00 0.00 0.00 0.00 0.00 0.00 0.00 0.00 0.00 0.00
0.07 0.05 0.03 0.01 0.01 0.00 0.00 0.00 0.00 0.00 0.00 0.01 0.03 0.02 0.00 0.00 0.01 0.01 0.03 0.01 0.01 0.01 0.02 0.00 0.00 0.00 0.01 0.00 0.00 0.00 0.00 0.00 0.00 0.00 0.00 0.00 0.00 0.00 0.00 0.00 0.00 0.00 0.00 0.00
0.12 0.08 0.01 0.00 0.00 0.00 0.00 0.00 0.00 0.01 0.05 0.19 0.29 0.12 0.01 0.02 0.03 0.02 0.01 0.00 0.01 0.01 0.00 0.00 0.00 0.00 0.00 0.00 0.00 0.00 0.00 0.00 0.00 0.00 0.00 0.00 0.00 0.00 0.00 0.00 0.00 0.00 0.00 0.02
0.09 0.04 0.01 0.00 0.00 0.00 0.00 0.01 0.04 0.04 0.06 0.17 0.29 0.10 0.01 0.01 0.00 0.00 0.00 0.00 0.00 0.00 0.00 0.00 0.00 0.00 0.00 0.00 0.00 0.00 0.00 0.00 0.00 0.00 0.01 0.00 0.00 0.00 0.00 0.00 0.00 0.01 0.02 0.03
0.06 0.01 0.00 0.00 0.00 0.00 0.00 0.02 0.02 0.02 0.07 0.06 0.05 0.03 0.00 0.00 0.00 0.00 0.00 0.00 0.00 0.00 0.00 0.00 0.00 0.00 0.00 0.00 0.00 0.00 0.00 0.00 0.00 0.01 0.01 0.01 0.01 0.02 0.02 0.02 0.03 0.04 0.03 0.03